Regional Weather Roundup
Issued by NWS

Home | Current Version | Previous Version | Text Only | Print | Product List | Glossary On
Versions: 1 2 3 4 5 6 7 8 9 10 11 12 13 14 15 16 17 18 19 20 21 22 23 24 25 26 27 28 29 30 31 32 33 34 35 36 37 38 39 40 41 42 43 44 45 46 47 48 49 50
000
ASUS43 KLOT 310110
RWRIL

ILLINOIS REGIONAL WEATHER ROUNDUP
NATIONAL WEATHER SERVICE CHICAGO/ROMEOVILLE IL
700 PM CST FRI JAN 30 2015

NOTE: "FAIR" INDICATES FEW OR NO CLOUDS BELOW 12,000 FEET WITH NO
SIGNIFICANT WEATHER AND/OR OBSTRUCTIONS TO VISIBILITY.

* THESE STATIONS ARE NOT UNDER NWS QUALITY CONTROL. THEY ALSO MAY NOT
  REPORT WEATHER SUCH AS PRECIPITATION OR FOG.

ILZ001-002-007-009-015-016-024-310200-
NORTHWEST ILLINOIS

CITY           SKY/WX    TMP DP  RH WIND       PRES   REMARKS
MOLINE         CLEAR     24  18  77 CALM      30.41F
STERLING*      CLEAR     21  14  73 CALM      30.42F
SAVANNA*       CLEAR     25  15  67 CALM      30.42F
$$

ILZ003-004-008-010-011-017-018-310200-
NORTH CENTRAL ILLINOIS

CITY           SKY/WX    TMP DP  RH WIND       PRES   REMARKS
ROCKFORD       PTCLDY    22  12  65 SW6       30.43S WCI  14
FREEPORT*      CLEAR     19  14  80 S5        30.42S WCI  12
ROCHELLE*      CLEAR     22  17  81 S5        30.43S WCI  15
DE KALB*       PTCLDY    19  13  77 SW5       30.41F WCI  13
PERU*          FAIR      25  20  80 CALM      30.44S
$$

ILZ005-006-012>014-019>023-310200-
NORTHEAST ILLINOIS

CITY           SKY/WX    TMP DP  RH WIND       PRES   REMARKS
CHICAGO-OHARE  PTCLDY    23  11  60 W6        30.41F WCI  16
CHICAGO-MIDWAY PTCLDY    27  14  58 W8        30.43S WCI  19
AURORA         CLEAR     23  14  68 SW3       30.43S
LANSING*       CLEAR     24  16  70 CALM      30.44R
JOLIET*        CLEAR     24  15  68 CALM      30.45R
WAUKEGAN       CLEAR     22  10  60 CALM      30.41S
DUPAGE AIRPORT CLEAR     21  13  71 SW7       30.41F WCI  12
KANKAKEE*      CLEAR     26  20  80 CALM      30.45S
WHEELING       CLEAR     24  10  55 CALM      30.43S
MORRIS*        CLEAR     24  20  83 CALM      30.44S
ROMEOVILLE*    CLEAR     23  15  70 W5        30.43F WCI  17
NORTHERLY ISL    N/A     25  16  68 S5          N/A  WCI  19
$$

LMZ740>746-310200-
SOUTHERN LAKE MICHIGAN

STATION/POSITION SKY/WX   TEMP    WIND        PRES    VSBY  WAVE
                          AIR SEA DIR/SP/G                  HT/PER
                          (F)     (DEG/KT/KT) (MB)    (MI)  (FT/S)
WAUKEGAN HARBOR            25     260/  4/  8   N/A
HARRISON CRIB              26     170/ 10/ 11   N/A
BURNHAM HARBOR             26     180/  3/  6   N/A
CALUMET HARBOR             26     190/  3/  4   N/A
MICHIGAN CITY              24     110/  3/  3   N/A
$$

ILZ025>027-034>036-040-047-049-050-058-095>099-310200-
WEST-CENTRAL ILLINOIS

CITY           SKY/WX    TMP DP  RH WIND       PRES   REMARKS
QUINCY         CLEAR     27  15  61 S3        30.43F
GALESBURG*     CLEAR     26  21  84 S3        30.41F
MACOMB*        CLEAR     28  24  82 SW3       30.45F
JACKSONVILLE*  CLEAR     29  19  64 CALM      30.45F
PITTSFIELD*    CLEAR     30  20  65 CALM      30.46S
$$

ILZ028>032-037-038-041>044-048-051>054-059>061-310200-
CENTRAL ILLINOIS

CITY           SKY/WX    TMP DP  RH WIND       PRES   REMARKS
PONTIAC        CLEAR     27  25  92 CALM      30.44F
BLOOMINGTON    CLEAR     26  20  78 SW5       30.44S WCI  20
DECATUR        CLEAR     30  20  66 CALM      30.46S
PEORIA         CLEAR     28  17  63 S3        30.44F
LACON*         CLEAR     22  17  82 CALM      30.44S
LINCOLN*       CLEAR     28  22  77 CALM      30.47S
SPRINGFIELD    CLEAR     25  19  78 S5        30.45F WCI  19
TAYLORVILLE    CLEAR     28  21  74 S3        30.46F
$$

ILZ033-039-045-046-055>057-062-063-310200-
EAST-CENTRAL ILLINOIS

CITY           SKY/WX    TMP DP  RH WIND       PRES   REMARKS
CHAMPAIGN      CLEAR     26  20  77 CALM      30.45S
DANVILLE*      CLEAR     26  19  76 CALM      30.42S
RANTOUL*       CLEAR     28  23  81 CALM      30.44S
MATTOON        CLEAR     27  18  69 CALM      30.45S
PARIS*         CLEAR     28  24  85 CALM      30.47S
$$

ILZ079-100>102-310200-
SOUTHWEST ILLINOIS

CITY           SKY/WX    TMP DP  RH WIND       PRES   REMARKS
BELLEVILLE     CLEAR     29  22  78 E3        30.46S
CAHOKIA*       CLEAR     28  20  71 SE3       30.46S
SPARTA*        CLEAR     29  23  76 NE3       30.48S
$$

ILZ064>066-069>071-074>076-080>082-084>086-088>090-092>094-310200-
SOUTH-CENTRAL ILLINOIS

CITY           SKY/WX    TMP DP  RH WIND       PRES   REMARKS
CARBONDALE     CLEAR     30  19  63 CALM      30.47S
CAIRO*         PTCLDY    36  21  55 CALM      30.46S
EFFINGHAM*     CLEAR     27  19  72 CALM      30.49S
MARION         CLEAR     28  21  74 CALM      30.47F
MT. VERNON     CLEAR     27  18  69 CALM      30.47S
CENTRALIA*     CLEAR     29  23  78 CALM      30.47S
SALEM*         CLEAR     31  23  71 CALM      30.48R
METROPOLIS*    CLEAR     31  22  69 N3        30.46R
$$

ILZ067-068-072-073-078-083-087-091-310200-
SOUTHEAST ILLINOIS

CITY           SKY/WX    TMP DP  RH WIND       PRES   REMARKS
LAWRENCEVILLE  CLEAR     29  19  66 NW5       30.49R WCI  24
FLORA*         CLEAR     31  21  65 CALM      30.49R
FAIRFIELD*     CLEAR     28  24  84 CALM      30.47S
HARRISBURG*    CLEAR     28  23  79 CALM      30.49R
ROBINSON*      CLEAR     28  20  73 CALM      30.49R
CARMI*         CLEAR     32  25  75 CALM      30.48R
$$

ABBREVIATIONS USED IN REMARKS
   TC - TEMPERATURE IN CELSIUS
  WCI - WIND CHILL INDEX
   HX - HEAT INDEX
  VSB - VISIBILITY
$$




USA.gov is the U.S. government's official web portal to all federal, state and local government web resources and services.